Weather History for KHAI - March, 2013

Change the Weather History Date:

Friday, March 8, 2013

  Actual Average Record
Temperature  
Mean Temperature 28 °F -  
Max Temperature 38 °F 43 °F 72 °F (1987)
Min Temperature 17 °F 21 °F -1 °F (1960)
Degree Days  
Heating Degree Days 38    
Moisture  
Dew Point 21 °F    
Average Humidity 75    
Maximum Humidity 93    
Minimum Humidity 51    
Precipitation  
Precipitation 0.00 in - - ()
Sea Level Pressure  
Sea Level Pressure 30.44 in    
Wind  
Wind Speed 1 mph (South)    
Max Wind Speed 7 mph    
Max Gust Speed -    
Visibility 9 miles    
Events      
Averages and records for this station are not official NWS values.
T = Trace of Precipitation, MM = Missing Value Source: NWS Daily Summary

Daily Weather History Graph

Daily Weather History Graph

Search for Another Location

Airport or City:

Trip Planner

Search our weather history database for the weather conditions in past years. The results will help you decide how hot, cold, wet, or windy it might be!

Date:

Astronomy

Mar. 08, 2013 Rise Set
Actual Time 7:05 AM EST 6:41 PM EST
Civil Twilight 6:37 AM EST 7:09 PM EST
Nautical Twilight 6:05 AM EST 7:41 PM EST
Astronomical Twilight 5:32 AM EST 8:13 PM EST
Moon 4:52 AM EST (3/8) 3:33 PM EST (3/8)
Length of Visible Light 12h 31m
Length of Day
11h 35m
Waning Crescent, 12% of the Moon is Illuminated
Mar 8
Waning Crescent
Mar 11
New
Mar 19
First Quarter
Mar 27
Full
Apr 3
Last Quarter

Hourly Weather History & Observations

Time (EST) Temp. Windchill Dew Point Humidity Pressure Visibility Wind Dir Wind Speed Gust Speed Precip Events Conditions
12:15 AM 23.0 °F - 19.2 °F 85% 30.40 in 10.0 mi Calm Calm - N/A   Clear
12:34 AM 23.4 °F - 19.8 °F 86% 30.40 in 10.0 mi Calm Calm - N/A   Clear
1:15 AM 22.8 °F - 19.9 °F 89% 30.42 in 10.0 mi Calm Calm - N/A   Clear
1:34 AM 21.7 °F - 19.2 °F 90% 30.42 in 10.0 mi Calm Calm - N/A   Clear
1:55 AM 21.7 °F - 19.4 °F 91% 30.42 in 10.0 mi Calm Calm - N/A   Clear
2:15 AM 21.4 °F - 19.0 °F 91% 30.42 in 10.0 mi Calm Calm - N/A   Clear
2:34 AM 20.1 °F - 18.0 °F 91% 30.42 in 10.0 mi Calm Calm - N/A   Clear
2:55 AM 20.3 °F - 18.3 °F 92% 30.42 in 10.0 mi Calm Calm - N/A   Clear
3:14 AM 20.5 °F - 18.3 °F 91% 30.43 in 7.0 mi Calm Calm - N/A   Clear
3:34 AM 19.2 °F - 16.7 °F 90% 30.43 in 10.0 mi Calm Calm - N/A   Clear
3:55 AM 17.8 °F - 15.6 °F 91% 30.43 in 10.0 mi Calm Calm - N/A   Clear
4:14 AM 19.2 °F - 16.9 °F 91% 30.43 in 7.0 mi Calm Calm - N/A   Clear
4:35 AM 18.5 °F - 16.3 °F 91% 30.44 in 5.0 mi Calm Calm - N/A   Clear
4:55 AM 18.9 °F - 16.7 °F 91% 30.44 in 5.0 mi Calm Calm - N/A   Clear
5:14 AM 18.7 °F - 16.7 °F 92% 30.45 in 7.0 mi Calm Calm - N/A   Clear
5:35 AM 18.9 °F - 16.7 °F 91% 30.45 in 7.0 mi Calm Calm - N/A   Clear
5:55 AM 18.5 °F - 16.3 °F 91% 30.45 in 10.0 mi Calm Calm - N/A   Clear
6:14 AM 17.4 °F - 15.3 °F 91% 30.45 in 7.0 mi Calm Calm - N/A   Clear
6:35 AM 18.5 °F - 16.7 °F 93% 30.46 in 5.0 mi Calm Calm - N/A   Clear
6:55 AM 18.1 °F - 16.2 °F 92% 30.46 in 4.0 mi Calm Calm - N/A   Clear
7:14 AM 17.6 °F - 15.6 °F 92% 30.47 in 3.0 mi Calm Calm - N/A   Clear
7:35 AM 17.6 °F - 15.6 °F 92% 30.47 in 4.0 mi Calm Calm - N/A   Clear
7:54 AM 19.8 °F - 17.8 °F 92% 30.47 in 3.0 mi Calm Calm - N/A   Clear
8:14 AM 21.9 °F - 19.8 °F 91% 30.48 in 5.0 mi Calm Calm - N/A   Clear
8:35 AM 22.8 °F - 20.3 °F 90% 30.49 in 5.0 mi Calm Calm - N/A   Clear
8:54 AM 24.4 °F - 21.7 °F 89% 30.49 in 7.0 mi Calm Calm - N/A   Clear
9:15 AM 25.7 °F - 22.1 °F 86% 30.49 in 10.0 mi Calm Calm - N/A   Clear
9:35 AM 27.3 °F - 23.0 °F 84% 30.49 in 10.0 mi Calm Calm - N/A   Clear
9:54 AM 29.3 °F - 23.2 °F 78% 30.49 in 10.0 mi Calm Calm - N/A   Clear
10:15 AM 30.6 °F - 22.5 °F 72% 30.49 in 10.0 mi Calm Calm - N/A   Clear
10:35 AM 31.1 °F - 22.5 °F 70% 30.49 in 10.0 mi Calm Calm - N/A   Clear
10:54 AM 32.0 °F - 23.0 °F 69% 30.49 in 10.0 mi Calm Calm - N/A   Clear
11:15 AM 32.9 °F - 21.9 °F 64% 30.49 in 10.0 mi Calm Calm - N/A   Clear
11:35 AM 33.8 °F - 21.6 °F 61% 30.48 in 10.0 mi Calm Calm - N/A   Clear
11:54 AM 34.2 °F - 21.6 °F 60% 30.49 in 10.0 mi Calm Calm - N/A   Clear
12:15 PM 35.2 °F - 22.8 °F 61% 30.49 in 10.0 mi Calm Calm - N/A   Clear
12:34 PM 34.9 °F 30.8 °F 21.7 °F 59% 30.48 in 10.0 mi East 4.6 mph - N/A   Clear
12:54 PM 35.6 °F - 21.6 °F 57% 30.47 in 10.0 mi Calm Calm - N/A   Clear
1:15 PM 36.3 °F - 22.5 °F 57% 30.46 in 10.0 mi Calm Calm - N/A   Clear
1:34 PM 37.0 °F 33.3 °F 23.9 °F 59% 30.45 in 10.0 mi SSW 4.6 mph - N/A   Clear
1:55 PM 36.9 °F - 22.8 °F 57% 30.44 in 10.0 mi Calm Calm - N/A   Clear
2:15 PM 36.9 °F 32.2 °F 22.5 °F 56% 30.44 in 10.0 mi SSW 5.8 mph - N/A   Clear
2:34 PM 37.0 °F 32.4 °F 22.3 °F 55% 30.44 in 10.0 mi SSW 5.8 mph - N/A   Clear
2:55 PM 37.4 °F 32.1 °F 23.2 °F 57% 30.44 in 10.0 mi South 6.9 mph - N/A   Clear
3:14 PM 37.2 °F 31.9 °F 22.6 °F 56% 30.44 in 10.0 mi South 6.9 mph - N/A   Clear
3:35 PM 38.3 °F 33.9 °F 22.5 °F 53% 30.44 in 10.0 mi South 5.8 mph - N/A   Clear
3:55 PM 37.9 °F 35.5 °F 21.4 °F 51% 30.43 in 10.0 mi South 3.5 mph - N/A   Clear
4:14 PM 37.8 °F 34.2 °F 21.6 °F 52% 30.42 in 10.0 mi SSW 4.6 mph - N/A   Clear
4:35 PM 37.8 °F - 22.1 °F 53% 30.41 in 10.0 mi Calm Calm - N/A   Clear
4:55 PM 37.6 °F 33.1 °F 21.7 °F 53% 30.42 in 10.0 mi SSW 5.8 mph - N/A   Clear
5:14 PM 37.4 °F 33.8 °F 22.5 °F 55% 30.41 in 10.0 mi SSW 4.6 mph - N/A   Clear
5:35 PM 36.9 °F - 22.3 °F 56% 30.40 in 10.0 mi Calm Calm - N/A   Clear
5:55 PM 37.0 °F - 21.4 °F 53% 30.41 in 10.0 mi Calm Calm - N/A   Clear
6:14 PM 35.4 °F 31.5 °F 22.8 °F 60% 30.40 in 10.0 mi South 4.6 mph - N/A   Clear
6:35 PM 34.3 °F 31.4 °F 22.1 °F 61% 30.40 in 10.0 mi SSW 3.5 mph - N/A   Clear
6:54 PM 34.7 °F - 21.6 °F 59% 30.40 in 10.0 mi Calm Calm - N/A   Clear
7:14 PM 33.3 °F - 21.9 °F 63% 30.40 in 10.0 mi Calm Calm - N/A   Clear
7:35 PM 32.9 °F - 21.7 °F 64% 30.41 in 10.0 mi Calm Calm - N/A   Clear
7:54 PM 31.6 °F - 22.5 °F 69% 30.40 in 10.0 mi Calm Calm - N/A   Clear
8:15 PM 30.9 °F - 22.1 °F 70% 30.41 in 10.0 mi Calm Calm - N/A   Clear
8:34 PM 29.8 °F - 21.9 °F 72% 30.42 in 10.0 mi Calm Calm - N/A   Clear
8:55 PM 29.8 °F - 21.9 °F 72% 30.42 in 10.0 mi Calm Calm - N/A   Clear
9:15 PM 27.5 °F - 21.9 °F 80% 30.40 in 10.0 mi Calm Calm - N/A   Clear
9:34 PM 27.5 °F - 22.5 °F 81% 30.40 in 10.0 mi Calm Calm - N/A   Clear
9:55 PM 27.5 °F - 21.9 °F 80% 30.42 in 10.0 mi Calm Calm - N/A   Clear
10:15 PM 26.2 °F - 21.2 °F 81% 30.40 in 10.0 mi Calm Calm - N/A   Clear
10:34 PM 27.1 °F - 22.6 °F 83% 30.39 in 10.0 mi Calm Calm - N/A   Clear
10:55 PM 25.7 °F - 21.7 °F 85% 30.39 in 10.0 mi Calm Calm - N/A   Clear
11:15 PM 26.6 °F - 22.1 °F 83% 30.38 in 10.0 mi Calm Calm - N/A   Clear
11:34 PM 27.0 °F - 23.0 °F 85% 30.38 in 10.0 mi Calm Calm - N/A   Clear
11:55 PM 26.8 °F - 23.4 °F 87% 30.38 in 10.0 mi Calm Calm - N/A   Clear